TimeEDT,TemperatureF,Dew PointF,Humidity,Sea Level PressureIn,VisibilityMPH,Wind Direction,Wind SpeedMPH,Gust SpeedMPH,PrecipitationIn,Events,Conditions,WindDirDegrees,DateUTC
12:56 AM,59.0,50.0,72,29.88,10.0,Calm,Calm,-,N/A,,Clear,0,2013-09-22 04:56:00
1:56 AM,59.0,48.9,69,29.90,10.0,North,5.8,-,N/A,,Clear,10,2013-09-22 05:56:00
2:56 AM,57.0,50.0,77,29.90,10.0,North,5.8,-,N/A,,Clear,360,2013-09-22 06:56:00
3:56 AM,55.0,50.0,83,29.91,10.0,North,4.6,-,N/A,,Clear,360,2013-09-22 07:56:00
4:56 AM,54.0,48.9,83,29.92,10.0,North,3.5,-,N/A,,Clear,350,2013-09-22 08:56:00
5:56 AM,54.0,48.9,83,29.93,10.0,North,3.5,-,N/A,,Clear,360,2013-09-22 09:56:00
6:56 AM,53.1,48.9,86,29.95,10.0,North,4.6,-,N/A,,Clear,360,2013-09-22 10:56:00
7:56 AM,53.1,48.9,86,29.96,10.0,North,3.5,-,N/A,,Clear,360,2013-09-22 11:56:00
8:56 AM,57.0,48.9,74,29.97,10.0,NNE,5.8,-,N/A,,Clear,30,2013-09-22 12:56:00
9:56 AM,61.0,50.0,67,29.99,10.0,NNE,5.8,-,N/A,,Clear,30,2013-09-22 13:56:00
10:56 AM,64.0,48.0,56,30.00,10.0,ENE,8.1,-,N/A,,Partly Cloudy,60,2013-09-22 14:56:00
11:56 AM,66.0,45.0,47,29.99,10.0,NE,9.2,-,N/A,,Partly Cloudy,40,2013-09-22 15:56:00
12:56 PM,68.0,46.9,47,29.99,10.0,NNE,11.5,-,N/A,,Partly Cloudy,20,2013-09-22 16:56:00
1:56 PM,70.0,46.9,44,29.98,10.0,NE,4.6,-,N/A,,Partly Cloudy,40,2013-09-22 17:56:00
2:56 PM,71.1,46.9,42,29.96,10.0,North,10.4,-,N/A,,Partly Cloudy,10,2013-09-22 18:56:00
3:56 PM,72.0,46.9,41,29.94,10.0,North,11.5,18.4,N/A,,Partly Cloudy,10,2013-09-22 19:56:00
4:56 PM,73.0,48.0,41,29.93,10.0,North,5.8,-,N/A,,Partly Cloudy,10,2013-09-22 20:56:00
5:56 PM,72.0,48.0,43,29.93,10.0,North,9.2,-,N/A,,Clear,360,2013-09-22 21:56:00
6:56 PM,70.0,46.9,44,29.94,10.0,NNE,9.2,-,N/A,,Clear,20,2013-09-22 22:56:00
7:56 PM,66.9,48.0,51,29.95,10.0,North,5.8,-,N/A,,Clear,10,2013-09-22 23:56:00
8:56 PM,64.0,48.9,58,29.96,10.0,NNE,5.8,-,N/A,,Clear,30,2013-09-23 00:56:00
9:56 PM,63.0,48.9,60,29.98,10.0,ENE,4.6,-,N/A,,Clear,60,2013-09-23 01:56:00
10:56 PM,61.0,48.9,64,29.99,10.0,ENE,5.8,-,N/A,,Clear,70,2013-09-23 02:56:00
11:56 PM,60.1,48.9,67,29.99,10.0,ENE,4.6,-,N/A,,Clear,70,2013-09-23 03:56:00